Location: Unspecified
(38.6830°S, 0.0000°E)
Time: 18:22:16
(UTC+00:00)

Envisat - Pass Details

Date: 28 May 2019
Orbit: 764 x 766 km, 98.1° (Epoch: 20 June)

Event Time Altitude Azimuth Distance (km) Brightness Sun altitude
Exits shadow 20:18:02 13° 305° (NW) 2,085 5.7 -40.4°
Drops below altitude 10° 20:18:43 10° 309° (NW) 2,312 5.9 -40.5°
Sets 20:21:13 0° 319° (NW) 3,230 6.6 -41.0°
